Location: Linden Beach
(43.8519°N, 88.3741°W)
Time: 19:50:51
(UTC+00:00)

ISS - Visible Passes

Search period start: 13 May 2021 00:00
Search period end: 23 May 2021 00:00
Orbit: 417 x 422 km, 51.6° (Epoch: 13 May)

Date Brightness Start Highest point End Pass type
(mag) Time Alt. Az. Time Alt. Az. Time Alt. Az.
13 May -1.2 06:16:41 22° N 06:16:41 22° N 06:19:18 10° NE visible
13 May -1.5 07:51:13 10° NW 07:54:07 26° NNE 07:57:02 10° ENE visible
13 May -3.8 09:27:52 10° WNW 09:31:15 89° SW 09:34:38 10° ESE visible
14 May -1.4 02:13:27 10° SSE 02:13:27 10° SSE 02:13:27 10° SSE visible
14 May -1.2 05:30:10 20° NNE 05:30:10 20° NNE 05:31:48 10° NE visible
14 May -1.2 07:03:44 10° NW 07:06:31 23° N 07:09:16 10° ENE visible
14 May -3.2 08:40:26 10° NW 08:43:48 59° NNE 08:47:08 10° ESE visible
15 May -3.9 03:01:00 10° SW 03:04:20 63° SE 03:07:40 10° ENE visible
15 May -1.8 04:38:19 10° W 04:41:20 29° NNW 04:44:22 10° NE visible
15 May -1.1 06:16:12 10° NW 06:18:52 21° N 06:21:33 10° NE visible
15 May -2.4 07:53:03 10° NW 07:56:17 41° NNE 07:59:31 10° E visible
15 May -3.1 09:29:58 10° WNW 09:33:03 33° SW 09:36:07 10° SSE visible
16 May -3.3 02:13:49 10° SSW 02:16:57 38° SE 02:20:06 10° ENE visible
16 May -2.3 03:50:36 10° W 03:53:46 38° NNW 03:56:58 10° NE visible
16 May -1.1 05:28:33 10° NW 05:31:14 21° N 05:33:53 10° NE visible
16 May -1.9 07:05:40 10° NW 07:08:44 31° NNE 07:11:49 10° E visible
16 May -3.7 08:42:23 10° WNW 08:45:42 55° SW 08:49:00 10° SE visible
17 May -2.9 03:02:56 10° WSW 03:06:15 53° NNW 03:09:34 10° NE visible
17 May -1.2 04:40:51 10° WNW 04:43:35 22° N 04:46:19 10° NE visible
17 May -1.5 06:18:14 10° NW 06:21:08 26° NNE 06:21:40 25° NNE visible
17 May -2.1 08:00:12 24° ESE 08:00:12 24° ESE 08:01:40 10° ESE visible
17 May -1.9 09:33:44 12° WSW 09:34:37 13° SW 09:36:09 10° SSW visible
18 May -3.7 02:15:24 10° WSW 02:18:46 80° NNW 02:22:08 10° ENE visible
18 May -1.4 03:53:06 10° WNW 03:55:57 25° NNW 03:58:49 10° NE visible
18 May -1.3 05:30:45 10° NW 05:33:31 23° N 05:34:29 20° NE visible
19 May -1.7 03:05:20 10° W 03:08:21 29° NNW 03:11:22 10° NE visible
19 May -1.2 04:43:12 10° NW 04:45:53 21° N 04:48:09 12° NE visible
19 May -1.2 06:20:03 10° NW 06:21:05 18° NW 06:21:05 18° NW visible
20 May -2.1 02:17:35 10° W 02:20:46 38° NNW 02:23:57 10° NE visible
20 May -1.1 03:55:34 10° NW 03:58:13 21° N 04:00:53 10° NE visible
20 May -1.7 05:32:39 10° NW 05:34:56 28° N 05:34:56 28° N visible
21 May -1.2 03:07:51 10° WNW 03:10:34 22° N 03:13:17 10° NE visible
21 May -1.7 04:45:13 10° NW 04:48:07 26° NNE 04:48:51 24° NE visible
22 May -1.4 02:20:05 10° WNW 02:22:55 25° NNW 02:25:47 10° NE visible
22 May -1.4 03:57:43 10° NW 04:00:29 23° N 04:02:50 12° ENE visible
22 May -1.5 05:34:26 10° NW 05:35:46 22° NW 05:35:46 22° NW visible
